Time,TemperatureF,DewpointF,PressureIn,WindDirection,WindDirectionDegrees,WindSpeedMPH,WindSpeedGustMPH,Humidity,HourlyPrecipIn,Conditions,Clouds,dailyrainin,SoftwareType,DateUTC
2013-05-08 00:04:00,59.0,57.0,29.98,ENE,71,0.0,1.0,93,0.00,,,0.88,weatherlink.com 1.10,2013-05-08 04:04:00,
2013-05-08 00:19:00,58.6,57.0,29.99,ENE,71,0.0,1.0,93,0.00,,,0.00,weatherlink.com 1.10,2013-05-08 04:19:00,
2013-05-08 00:35:00,58.4,56.0,29.99,ENE,71,0.0,0.0,93,0.00,,,0.00,weatherlink.com 1.10,2013-05-08 04:35:00,
2013-05-08 00:50:00,58.2,56.0,29.98,ENE,71,0.0,0.0,93,0.00,,,0.00,weatherlink.com 1.10,2013-05-08 04:50:00,
2013-05-08 01:05:00,57.8,56.0,29.98,ENE,71,0.0,0.0,93,0.00,,,0.00,weatherlink.com 1.10,2013-05-08 05:05:00,
2013-05-08 01:20:00,57.3,56.0,29.98,ENE,71,0.0,0.0,94,0.00,,,0.00,weatherlink.com 1.10,2013-05-08 05:20:00,
2013-05-08 01:35:00,57.3,56.0,29.98,ENE,71,0.0,1.0,94,0.00,,,0.00,weatherlink.com 1.10,2013-05-08 05:35:00,
2013-05-08 01:50:00,57.1,56.0,29.97,ENE,71,0.0,0.0,95,0.00,,,0.00,weatherlink.com 1.10,2013-05-08 05:50:00,
2013-05-08 02:05:00,57.1,56.0,29.96,ENE,71,0.0,1.0,95,0.00,,,0.00,weatherlink.com 1.10,2013-05-08 06:05:00,
2013-05-08 02:20:00,57.0,56.0,29.96,ENE,71,0.0,0.0,95,0.00,,,0.00,weatherlink.com 1.10,2013-05-08 06:20:00,
2013-05-08 02:35:00,56.7,55.0,29.96,ENE,71,0.0,0.0,95,0.00,,,0.00,weatherlink.com 1.10,2013-05-08 06:35:00,
2013-05-08 02:50:00,56.5,55.0,29.96,ENE,71,0.0,0.0,95,0.00,,,0.00,weatherlink.com 1.10,2013-05-08 06:50:00,
2013-05-08 03:05:00,56.9,56.0,29.96,ENE,71,0.0,2.0,96,0.00,,,0.00,weatherlink.com 1.10,2013-05-08 07:05:00,
2013-05-08 03:20:00,56.9,56.0,29.95,ENE,71,0.0,0.0,96,0.00,,,0.00,weatherlink.com 1.10,2013-05-08 07:20:00,
2013-05-08 03:35:00,56.5,55.0,29.95,ENE,71,0.0,0.0,96,0.00,,,0.00,weatherlink.com 1.10,2013-05-08 07:35:00,
2013-05-08 03:50:00,56.0,55.0,29.95,ENE,71,0.0,0.0,95,0.00,,,0.00,weatherlink.com 1.10,2013-05-08 07:50:00,
2013-05-08 04:05:00,55.6,54.0,29.95,ENE,71,0.0,0.0,95,0.00,,,0.00,weatherlink.com 1.10,2013-05-08 08:05:00,
2013-05-08 04:20:00,55.5,54.0,29.95,ENE,71,0.0,0.0,96,0.00,,,0.00,weatherlink.com 1.10,2013-05-08 08:20:00,
2013-05-08 04:35:00,55.4,54.0,29.96,ENE,71,0.0,0.0,96,0.00,,,0.00,weatherlink.com 1.10,2013-05-08 08:35:00,
2013-05-08 04:50:00,55.8,55.0,29.95,ENE,71,0.0,1.0,97,0.00,,,0.00,weatherlink.com 1.10,2013-05-08 08:50:00,
2013-05-08 05:05:00,55.9,55.0,29.95,ENE,71,0.0,0.0,96,0.00,,,0.00,weatherlink.com 1.10,2013-05-08 09:05:00,
2013-05-08 05:20:00,55.8,55.0,29.95,ENE,71,0.0,0.0,96,0.00,,,0.00,weatherlink.com 1.10,2013-05-08 09:20:00,
2013-05-08 05:35:00,55.7,55.0,29.95,ENE,71,0.0,0.0,96,0.00,,,0.00,weatherlink.com 1.10,2013-05-08 09:35:00,
2013-05-08 05:50:00,55.7,55.0,29.96,ENE,71,0.0,0.0,97,0.00,,,0.00,weatherlink.com 1.10,2013-05-08 09:50:00,
2013-05-08 06:05:00,55.6,55.0,29.96,ENE,71,0.0,0.0,97,0.00,,,0.00,weatherlink.com 1.10,2013-05-08 10:05:00,
2013-05-08 06:20:00,55.5,55.0,29.97,ENE,71,0.0,0.0,97,0.00,,,0.00,weatherlink.com 1.10,2013-05-08 10:20:00,
2013-05-08 06:35:00,55.6,55.0,29.97,ENE,71,0.0,0.0,97,0.00,,,0.00,weatherlink.com 1.10,2013-05-08 10:35:00,
2013-05-08 06:50:00,55.5,55.0,29.97,ENE,71,0.0,0.0,97,0.00,,,0.00,weatherlink.com 1.10,2013-05-08 10:50:00,
2013-05-08 07:05:00,55.7,55.0,29.97,ENE,71,0.0,0.0,97,0.00,,,0.00,weatherlink.com 1.10,2013-05-08 11:05:00,
2013-05-08 07:20:00,55.8,55.0,29.98,ENE,71,0.0,0.0,97,0.00,,,0.00,weatherlink.com 1.10,2013-05-08 11:20:00,
2013-05-08 07:35:00,55.7,55.0,29.98,ENE,71,0.0,0.0,97,0.00,,,0.00,weatherlink.com 1.10,2013-05-08 11:35:00,
2013-05-08 07:50:00,55.8,55.0,29.99,ENE,71,0.0,0.0,97,0.00,,,0.00,weatherlink.com 1.10,2013-05-08 11:50:00,
2013-05-08 08:05:00,56.0,55.0,29.99,ENE,71,0.0,0.0,97,0.00,,,0.00,weatherlink.com 1.10,2013-05-08 12:05:00,
2013-05-08 08:21:00,56.0,55.0,30.00,ENE,71,0.0,1.0,96,0.00,,,0.00,weatherlink.com 1.10,2013-05-08 12:21:00,
2013-05-08 08:35:00,56.2,55.0,30.00,ENE,72,0.0,2.0,97,0.01,,,0.01,weatherlink.com 1.10,2013-05-08 12:35:00,
2013-05-08 08:50:00,56.3,55.0,30.00,ENE,72,0.0,0.0,96,0.01,,,0.01,weatherlink.com 1.10,2013-05-08 12:50:00,
2013-05-08 09:05:00,56.6,56.0,30.01,ENE,72,0.0,0.0,96,0.01,,,0.01,weatherlink.com 1.10,2013-05-08 13:05:00,
2013-05-08 09:20:00,56.8,55.0,30.00,East,86,0.0,1.0,95,0.01,,,0.01,weatherlink.com 1.10,2013-05-08 13:20:00,
2013-05-08 09:35:00,57.5,56.0,30.00,East,84,1.0,2.0,94,0.00,,,0.01,weatherlink.com 1.10,2013-05-08 13:35:00,
2013-05-08 09:50:00,58.2,56.0,30.00,East,84,0.0,1.0,93,0.00,,,0.01,weatherlink.com 1.10,2013-05-08 13:50:00,
2013-05-08 10:05:00,59.6,57.0,30.00,East,90,1.0,2.0,91,0.00,,,0.01,weatherlink.com 1.10,2013-05-08 14:05:00,
2013-05-08 10:20:00,61.3,57.0,30.01,SSE,157,1.0,2.0,87,0.00,,,0.01,weatherlink.com 1.10,2013-05-08 14:20:00,
2013-05-08 10:35:00,62.4,57.0,30.00,SE,140,0.0,2.0,82,0.00,,,0.01,weatherlink.com 1.10,2013-05-08 14:35:00,
2013-05-08 10:50:00,62.4,58.0,30.00,SE,140,0.0,1.0,84,0.00,,,0.01,weatherlink.com 1.10,2013-05-08 14:50:00,
2013-05-08 11:05:00,62.7,58.0,30.01,SSE,155,1.0,2.0,84,0.00,,,0.01,weatherlink.com 1.10,2013-05-08 15:05:00,
2013-05-08 11:20:00,63.3,57.0,30.00,South,183,0.0,3.0,81,0.00,,,0.01,weatherlink.com 1.10,2013-05-08 15:20:00,
2013-05-08 11:35:00,63.8,58.0,30.00,SE,140,1.0,2.0,82,0.00,,,0.01,weatherlink.com 1.10,2013-05-08 15:35:00,
2013-05-08 11:50:00,64.7,58.0,30.00,SSE,161,0.0,4.0,79,0.00,,,0.01,weatherlink.com 1.10,2013-05-08 15:50:00,
2013-05-08 12:06:00,65.8,59.0,30.00,SSE,148,0.0,2.0,78,0.00,,,0.01,weatherlink.com 1.10,2013-05-08 16:06:00,
2013-05-08 12:22:00,66.7,60.0,30.00,SSW,207,0.0,3.0,78,0.00,,,0.01,weatherlink.com 1.10,2013-05-08 16:22:00,
2013-05-08 12:36:00,67.9,60.0,30.00,East,97,2.0,4.0,76,0.00,,,0.01,weatherlink.com 1.10,2013-05-08 16:36:00,
2013-05-08 12:51:00,67.6,59.0,29.99,South,180,1.0,4.0,75,0.00,,,0.01,weatherlink.com 1.10,2013-05-08 16:51:00,
2013-05-08 13:06:00,67.9,60.0,29.98,SSE,152,1.0,2.0,76,0.00,,,0.01,weatherlink.com 1.10,2013-05-08 17:06:00,
2013-05-08 13:21:00,66.8,59.0,29.98,SSW,209,0.0,4.0,76,0.00,,,0.01,weatherlink.com 1.10,2013-05-08 17:21:00,
2013-05-08 13:36:00,67.0,59.0,29.98,SSW,205,1.0,4.0,76,0.00,,,0.01,weatherlink.com 1.10,2013-05-08 17:36:00,
2013-05-08 13:51:00,68.5,60.0,29.97,SSW,210,1.0,4.0,74,0.00,,,0.01,weatherlink.com 1.10,2013-05-08 17:51:00,
2013-05-08 14:06:00,69.7,60.0,29.97,South,181,1.0,5.0,71,0.00,,,0.01,weatherlink.com 1.10,2013-05-08 18:06:00,
2013-05-08 14:21:00,70.0,60.0,29.96,South,181,0.0,5.0,70,0.00,,,0.01,weatherlink.com 1.10,2013-05-08 18:21:00,
2013-05-08 14:36:00,70.1,57.0,29.96,SSE,149,0.0,4.0,63,0.00,,,0.01,weatherlink.com 1.10,2013-05-08 18:36:00,
2013-05-08 14:51:00,70.6,58.0,29.96,SSE,163,1.0,6.0,65,0.00,,,0.01,weatherlink.com 1.10,2013-05-08 18:51:00,
2013-05-08 15:06:00,69.9,57.0,29.95,South,172,2.0,5.0,64,0.00,,,0.01,weatherlink.com 1.10,2013-05-08 19:06:00,
2013-05-08 15:21:00,70.2,57.0,29.95,South,180,1.0,5.0,64,0.00,,,0.01,weatherlink.com 1.10,2013-05-08 19:21:00,
2013-05-08 15:36:00,67.7,57.0,29.94,SSE,156,0.0,3.0,69,0.00,,,0.01,weatherlink.com 1.10,2013-05-08 19:36:00,
2013-05-08 15:51:00,66.3,57.0,29.94,SSE,156,0.0,2.0,72,0.00,,,0.01,weatherlink.com 1.10,2013-05-08 19:51:00,
2013-05-08 16:06:00,65.8,57.0,29.95,SSE,156,0.0,2.0,74,0.00,,,0.01,weatherlink.com 1.10,2013-05-08 20:06:00,
2013-05-08 16:21:00,65.3,57.0,29.94,SSE,156,0.0,1.0,75,0.00,,,0.01,weatherlink.com 1.10,2013-05-08 20:21:00,
2013-05-08 16:36:00,65.5,57.0,29.95,SSE,156,0.0,1.0,75,0.00,,,0.01,weatherlink.com 1.10,2013-05-08 20:36:00,
2013-05-08 16:51:00,66.3,57.0,29.95,South,180,0.0,2.0,73,0.00,,,0.01,weatherlink.com 1.10,2013-05-08 20:51:00,
2013-05-08 17:06:00,66.0,58.0,29.95,South,190,0.0,4.0,74,0.00,,,0.01,weatherlink.com 1.10,2013-05-08 21:06:00,
2013-05-08 17:36:00,64.1,57.0,29.96,SW,224,0.0,1.0,78,0.00,,,0.01,weatherlink.com 1.10,2013-05-08 21:36:00,
2013-05-08 17:51:00,63.3,58.0,29.96,SW,217,0.0,1.0,83,0.00,,,0.01,weatherlink.com 1.10,2013-05-08 21:51:00,
2013-05-08 18:06:00,62.3,58.0,29.96,SSE,150,0.0,1.0,86,0.00,,,0.01,weatherlink.com 1.10,2013-05-08 22:06:00,
2013-05-08 18:21:00,61.4,58.0,29.95,SSE,147,0.0,2.0,88,0.01,,,0.02,weatherlink.com 1.10,2013-05-08 22:21:00,
2013-05-08 18:36:00,60.8,58.0,29.95,SSE,165,0.0,1.0,89,0.01,,,0.02,weatherlink.com 1.10,2013-05-08 22:36:00,
2013-05-08 18:51:00,60.4,58.0,29.96,SSE,165,0.0,2.0,90,0.01,,,0.02,weatherlink.com 1.10,2013-05-08 22:51:00,
2013-05-08 19:06:00,59.7,57.0,29.96,SSE,165,0.0,2.0,90,0.02,,,0.03,weatherlink.com 1.10,2013-05-08 23:06:00,
2013-05-08 19:21:00,59.3,57.0,29.96,SSE,168,0.0,1.0,91,0.01,,,0.03,weatherlink.com 1.10,2013-05-08 23:21:00,
2013-05-08 19:36:00,59.0,57.0,29.96,South,186,0.0,2.0,92,0.02,,,0.04,weatherlink.com 1.10,2013-05-08 23:36:00,
2013-05-08 19:51:00,58.3,56.0,29.96,SW,229,0.0,2.0,92,0.04,,,0.06,weatherlink.com 1.10,2013-05-08 23:51:00,
2013-05-08 20:06:00,58.0,56.0,29.96,SW,229,0.0,1.0,93,0.03,,,0.06,weatherlink.com 1.10,2013-05-09 00:06:00,
2013-05-08 20:21:00,58.1,56.0,29.95,SW,229,0.0,0.0,94,0.03,,,0.06,weatherlink.com 1.10,2013-05-09 00:21:00,
2013-05-08 20:36:00,58.4,57.0,29.96,SW,229,0.0,0.0,94,0.03,,,0.07,weatherlink.com 1.10,2013-05-09 00:36:00,
2013-05-08 20:51:00,58.2,57.0,29.96,SW,229,0.0,0.0,94,0.01,,,0.07,weatherlink.com 1.10,2013-05-09 00:51:00,
2013-05-08 21:06:00,58.1,56.0,29.97,SSW,199,0.0,2.0,94,0.01,,,0.07,weatherlink.com 1.10,2013-05-09 01:06:00,
2013-05-08 21:22:00,58.1,57.0,29.97,SSW,199,0.0,0.0,95,0.01,,,0.07,weatherlink.com 1.10,2013-05-09 01:22:00,
2013-05-08 21:36:00,58.0,57.0,29.97,SSW,205,0.0,0.0,95,0.00,,,0.07,weatherlink.com 1.10,2013-05-09 01:36:00,
2013-05-08 21:51:00,57.8,56.0,29.97,SSW,205,0.0,0.0,95,0.00,,,0.07,weatherlink.com 1.10,2013-05-09 01:51:00,
2013-05-08 22:06:00,57.4,56.0,29.98,SSW,205,0.0,0.0,95,0.00,,,0.07,weatherlink.com 1.10,2013-05-09 02:06:00,
2013-05-08 22:21:00,57.1,56.0,29.98,SSW,205,0.0,0.0,95,0.00,,,0.07,weatherlink.com 1.10,2013-05-09 02:21:00,
2013-05-08 22:36:00,57.1,56.0,29.98,SSW,205,0.0,0.0,95,0.00,,,0.07,weatherlink.com 1.10,2013-05-09 02:36:00,
2013-05-08 22:51:00,57.1,56.0,29.97,SSW,205,0.0,0.0,95,0.00,,,0.07,weatherlink.com 1.10,2013-05-09 02:51:00,
2013-05-08 23:06:00,57.2,56.0,29.97,SSW,205,0.0,0.0,96,0.00,,,0.07,weatherlink.com 1.10,2013-05-09 03:06:00,
2013-05-08 23:21:00,57.1,56.0,29.97,SSW,205,0.0,0.0,96,0.00,,,0.07,weatherlink.com 1.10,2013-05-09 03:21:00,
2013-05-08 23:36:00,57.2,56.0,29.97,SSW,205,0.0,0.0,96,0.00,,,0.07,weatherlink.com 1.10,2013-05-09 03:36:00,
2013-05-08 23:51:00,57.3,56.0,29.97,SSW,205,0.0,0.0,96,0.00,,,0.07,weatherlink.com 1.10,2013-05-09 03:51:00,